Tracking 19827 objects as of 23-Aug-2019
HD Live streaming from Space Station
objects crossing your sky now

COSMOS 2251 DEB

Track COSMOS 2251 DEB now!
10-day predictions


NORAD ID: 39548
Int'l Code: 1993-036BUE
Perigee: 684.5 km
Apogee: 699.2 km
Inclination: 74.0 °
Period: 98.5 minutes
Semi major axis: 7062 km
RCS: Unknown
Launch date: June 16, 1993
Source: Commonwealth of Independent States (former USSR) (CIS)
Launch site: PLESETSK MISSILE AND SPACE COMPLEX (PKMTR)

Note: This is SATELLITE DEBRIS
aabbcc
Your satellite tracking list
Your tracking list is empty




NASA's NSSDC Master Catalog

Two Line Element Set (TLE):
1 39548U 93036BUE 19233.15081110 +.00001228 +00000-0 +24747-3 0  9995
2 39548 074.0129 025.0077 0010431 185.4889 297.4728 14.62617281285458
Source of the keplerian elements: AFSPC